Location: Unspecified
(0.0000°N, 0.0000°E)
Time: 23:36:42
(UTC+00:00)

Tiangong - Pass Details

Date: 24 January 2022
Orbit: 381 x 387 km, 41.5° (Epoch: 27 January)

Event Time Altitude Azimuth Distance (km) Brightness Sun altitude
Exits shadow 04:55:41 67° 277° (W) 413 0.9 -18.0°
Maximum altitude 04:55:59 75° 225° (SW) 393 0.9 -17.9°
Drops below altitude 10° 04:59:07 10° 138° (SE) 1,389 4.8 -17.2°
Sets 05:01:11 0° 136° (SE) 2,244 6.1 -16.7°
